Temperature
2 2 3 3 3 3 3 3 3 5 5 7 7 7 7 8 8 8 9 9 9 10 11 11 12 13 14 14 15 15 15 15 15 15 15 15 15 14 14 14 14 13 12 12
1 2 2 3 3 4 4 4 4 4 5 7 7 7 7 8 8 8 8 8 9 9 10 11 12 12 13 14 14 14 14 15 15 14 14 14 14 14 13 13 13 13 12 12
1 2 2 2 3 4 4 4 4 4 6 6 6 6 6 7 7 7 7 8 8 9 10 10 11 11 12 13 13 13 14 14 14 14 13 13 13 13 13 13 13 12 12 12
0 1 0 2 3 4 4 4 4 5 5 5 5 6 7 7 7 7 7 7 8 8 9 10 11 11 12 12 12 13 13 13 13 13 13 13 13 13 13 12 12 12 12 11
0 0 1 2 3 3 3 4 4 4 4 5 5 5 6 6 6 6 6 7 8 8 9 10 11 11 11 11 12 12 12 12 12 13 13 12 12 12 12 12 12 12 11 11
-0 0 1 2 3 3 3 3 3 3 3 4 4 4 5 5 6 6 6 7 7 8 8 9 10 10 11 11 11 12 12 12 12 12 12 12 12 12 12 12 12 11 11 11
-0 -0 1 2 3 3 2 2 3 3 3 3 3 4 5 5 5 5 6 6 7 8 8 9 9 10 10 11 11 11 12 12 12 12 12 12 12 11 11 11 11 11 10 10
-1 -0 1 2 2 2 2 3 3 3 3 3 3 4 4 5 5 5 6 6 6 7 8 8 9 9 10 10 11 11 11 11 11 11 11 11 11 11 11 11 10 10 10 10
-0 1 2 3 3 3 4 3 3 3 4 3 3 4 4 4 5 5 5 6 6 6 7 8 8 9 9 10 10 10 10 10 11 11 11 11 11 11 10 10 10 10 9 9
-1 0 1 2 3 3 4 3 4 3 3 3 3 4 4 4 4 5 5 5 5 6 6 7 8 8 9 9 9 9 10 10 10 10 10 10 10 10 10 10 10 9 9 9
-1 0 1 2 3 3 3 3 3 3 3 3 3 3 4 4 4 4 4 5 5 5 5 6 7 8 8 8 9 9 9 9 9 9 10 9 9 9 10 10 10 10 10 9
0 1 1 1 3 3 3 3 3 3 3 3 3 3 3 3 4 4 4 4 4 5 5 6 6 7 8 8 8 8 9 9 9 9 9 9 9 8 8 9 9 9 9 9
2 2 2 2 2 2 2 2 2 2 2 2 3 3 3 3 3 3 4 4 4 4 5 5 6 6 7 7 7 8 8 8 8 8 8 8 8 8 8 8 8 8 8 8
2 1 1 1 1 1 1 1 1 2 2 2 2 2 2 2 3 3 3 3 3 4 4 5 5 6 6 7 7 7 7 7 8 8 8 8 8 8 8 8 7 7 7 7
1 1 0 1 1 1 1 1 0 1 1 1 1 2 2 2 2 2 3 3 3 3 4 4 4 5 5 6 6 6 7 7 7 7 7 7 7 7 7 7 7 7 7 6
0 0 -0 -0 -0 -0 -0 -0 -0 -0 0 0 0 1 1 1 1 2 2 2 2 3 3 4 4 4 5 5 6 6 6 6 6 6 7 6 6 6 6 6 6 6 6 6
-1 -1 -1 -1 -1 -1 -1 -1 -1 -1 -1 -1 -0 -0 0 0 1 1 1 2 2 2 2 3 3 4 4 5 5 5 5 5 6 6 6 6 6 6 6 6 6 6 6 6
-2 -2 -2 -2 -2 -2 -2 -2 -2 -2 -1 -1 -1 -1 -1 -0 -0 0 1 1 1 1 2 2 3 3 4 4 5 5 5 5 5 5 5 5 5 5 5 6 6 5 5 5
-3 -3 -3 -3 -3 -3 -3 -2 -2 -2 -2 -2 -2 -1 -1 -1 -1 -1 -0 -0 0 0 1 2 2 3 3 3 4 4 4 4 5 5 5 4 4 4 5 5 5 5 5 4
-3 -3 -3 -3 -3 -3 -3 -3 -3 -3 -2 -2 -2 -2 -2 -1 -1 -1 -1 -1 -0 -0 0 1 1 2 2 3 3 3 3 4 4 4 4 4 4 4 4 4 4 4 4 4
-4 -4 -4 -4 -4 -4 -4 -4 -3 -3 -3 -3 -3 -3 -2 -2 -2 -2 -2 -1 -0 -0 -0 0 1 1 2 2 2 3 3 3 3 3 3 3 3 3 3 3 3 3 3 3
-4 -4 -5 -4 -4 -4 -4 -4 -4 -4 -3 -3 -3 -3 -3 -2 -2 -2 -2 -2 -1 -1 -1 -0 0 1 1 1 2 2 2 2 3 3 3 3 3 3 3 3 3 2 2 2
-5 -5 -5 -5 -5 -5 -5 -4 -4 -4 -4 -4 -4 -3 -3 -3 -3 -3 -2 -2 -2 -1 -1 -1 -0 0 1 1 1 1 2 2 2 2 2 2 2 2 2 2 2 2 2 2
-6 -6 -6 -6 -6 -6 -5 -5 -5 -5 -5 -4 -4 -4 -4 -3 -3 -3 -3 -2 -2 -2 -2 -1 -1 -1 -0 0 0 0 1 1 1 1 2 1 1 1 1 1 1 1 1 1
-6 -6 -6 -6 -6 -6 -6 -6 -6 -5 -5 -5 -4 -4 -4 -4 -4 -3 -3 -3 -3 -2 -2 -2 -2 -1 -1 -1 -0 -0 -0 0 0 1 1 1 1 1 1 1 1 1 1 1
-7 -7 -7 -7 -7 -7 -7 -7 -7 -7 -6 -6 -5 -5 -5 -4 -4 -4 -4 -3 -3 -3 -3 -2 -2 -2 -2 -1 -1 -1 -1 -1 -1 -0 -0 -0 -0 -0 -0 0 0 0 0 -0
-7 -7 -8 -8 -7 -7 -7 -8 -8 -7 -7 -7 -6 -6 -6 -5 -5 -4 -4 -4 -4 -3 -3 -3 -3 -2 -2 -2 -2 -2 -1 -1 -1 -1 -1 -1 -1 -1 -1 -1 -1 -0 -1 -1
Wind_Speed
9 9 7 9 12 10 11 11 11 12 15 17 12 10 9 9 10 9 9 8 7 6 5 4 3 3 4 5 7 9 11 12 14 13 13 13 13 14 13 14 14 14 13 12
7 9 10 13 15 15 15 14 16 17 20 13 9 9 9 10 9 9 9 9 8 7 6 5 4 4 4 5 6 8 10 12 11 11 12 13 13 13 13 13 13 13 14 13
6 6 6 10 13 14 11 10 10 16 16 8 8 9 10 9 8 8 9 9 9 8 7 6 5 5 5 5 5 8 9 9 9 11 12 12 12 13 13 13 13 13 13 13
4 2 9 8 4 7 11 13 11 11 10 8 10 11 8 5 6 9 9 9 8 8 8 7 5 4 4 3 5 7 8 8 9 10 11 11 12 13 13 11 12 12 12 12
3 5 9 8 5 5 7 9 6 9 10 9 9 7 6 4 5 7 8 8 8 7 7 6 5 3 2 3 4 6 7 8 9 11 11 12 13 13 11 11 11 10 11 11
5 5 7 6 4 3 2 6 3 4 7 8 5 5 6 7 7 9 10 8 7 7 6 5 4 2 3 4 5 7 8 8 8 10 11 12 12 11 9 9 10 10 9 10
9 8 8 7 4 1 3 6 4 4 6 5 4 7 8 8 8 8 9 9 7 6 5 5 4 2 4 4 6 6 5 6 7 9 10 10 10 9 10 9 9 9 9 8
6 8 10 4 2 4 6 4 4 5 6 6 8 9 8 8 8 8 8 9 8 6 7 5 3 3 4 5 4 3 5 6 7 7 7 8 10 10 10 11 11 10 9 8
9 9 6 4 6 6 5 5 6 6 8 8 8 9 9 8 7 7 8 8 7 7 7 6 4 3 5 4 2 3 5 6 6 7 7 8 10 11 10 10 9 9 9 8
7 9 9 8 7 7 7 8 8 8 8 8 9 9 9 8 7 7 7 7 7 7 7 7 5 5 5 4 4 5 6 6 6 7 7 7 7 9 10 10 10 9 9 9
9 9 8 9 8 9 9 9 9 9 9 9 9 9 9 9 8 8 8 7 6 6 8 8 7 6 5 4 5 5 6 6 6 7 7 7 6 6 8 8 10 12 10 10
11 9 8 9 9 8 9 9 10 10 11 10 9 9 9 9 8 8 8 7 7 7 8 8 7 6 5 4 5 6 6 6 6 6 6 6 6 4 4 6 9 10 11 11
14 11 11 11 10 10 10 10 10 10 11 12 10 9 9 9 8 7 8 8 9 9 8 8 7 7 5 5 6 7 6 7 6 7 7 7 8 8 6 5 7 9 12 13
12 10 11 11 11 11 11 11 10 10 10 10 9 9 8 9 9 9 9 9 8 8 8 7 7 7 5 5 6 6 6 7 7 7 7 8 8 8 8 8 7 5 8 13
11 11 12 10 10 10 9 8 9 10 9 9 9 9 9 9 10 10 9 7 7 8 8 7 7 7 5 5 6 6 6 6 6 6 7 7 7 7 7 8 8 7 6 8
9 9 9 10 11 10 9 8 10 11 10 10 10 10 9 9 10 10 8 6 7 9 9 7 8 7 5 5 5 5 6 8 8 7 7 7 8 8 8 8 8 8 9 9
7 8 8 9 11 10 9 10 10 11 10 11 11 10 9 9 9 9 8 7 8 9 9 8 8 6 5 5 5 5 5 7 9 7 7 8 8 9 9 9 9 8 7 10
7 9 9 9 9 10 10 10 10 10 10 10 10 9 9 9 10 10 8 7 7 8 8 8 7 5 5 5 5 5 5 6 7 7 7 7 8 8 8 8 9 9 8 9
5 6 7 7 8 8 8 9 9 9 9 9 9 9 9 9 9 9 7 7 7 8 8 6 7 5 5 6 5 5 6 7 7 7 7 10 9 8 8 9 9 9 9 8
5 5 6 7 7 7 8 8 8 9 8 8 8 8 9 9 8 7 8 8 8 7 6 6 5 4 5 5 6 5 7 8 8 8 8 8 8 8 8 9 9 9 9 8
6 6 6 7 7 7 7 7 8 9 9 8 8 9 9 9 7 7 7 8 6 5 6 7 5 4 4 5 6 5 6 7 8 9 9 9 9 9 8 9 9 8 8 8
6 6 7 7 8 8 7 7 8 9 9 9 8 8 8 8 7 6 7 7 6 6 4 4 4 5 6 6 5 6 6 7 7 8 8 9 9 9 9 9 9 8 8 8
6 6 7 7 8 9 9 8 8 8 8 9 8 8 8 7 6 5 6 4 3 5 4 4 5 7 6 4 4 6 7 7 7 8 8 8 8 9 9 9 8 8 8 8
6 7 7 7 7 7 8 8 8 7 8 8 7 7 6 6 5 4 4 5 5 5 3 4 5 6 5 3 4 5 6 6 7 7 7 7 7 7 8 8 8 8 8 9
7 7 7 7 7 6 7 8 7 7 7 6 6 6 5 4 4 4 3 3 3 3 2 2 3 4 3 3 5 5 6 6 7 7 7 8 8 8 7 8 8 8 8 8
6 6 6 6 6 6 5 5 6 6 6 6 5 5 4 3 3 2 2 2 1 1 0 0 1 3 3 4 5 5 5 6 7 6 7 7 8 8 8 8 9 8 8 8
6 5 5 5 5 4 4 4 5 5 5 5 5 5 4 3 2 2 1 1 1 1 2 2 2 3 4 4 5 5 5 5 6 6 6 6 6 7 8 9 8 8 8 8
Wind_Direction
253 265 266 264 265 251 236 234 243 257 262 272 287 293 301 307 313 316 320 322 317 303 294 289 271 245 226 214 195 184 183 187 193 192 189 187 186 185 184 184 184 183 182 184
266 258 261 266 262 254 249 244 246 258 267 268 276 287 295 299 306 309 311 313 311 306 300 291 273 253 234 218 200 184 186 191 189 183 182 184 184 181 180 181 180 179 183 184
265 270 284 262 246 240 236 232 232 250 260 282 288 287 285 291 298 299 304 309 309 304 292 282 269 248 234 222 194 183 187 186 182 180 183 183 179 178 181 182 178 181 185 185
264 261 242 247 238 239 249 252 246 258 275 279 276 278 275 279 298 303 307 308 307 306 300 290 278 261 243 209 185 182 182 182 180 180 181 177 177 182 182 178 180 182 183 184
234 250 269 282 268 234 236 256 257 265 281 291 300 296 281 309 313 303 303 300 297 296 297 297 289 272 233 196 180 178 183 185 184 181 179 178 181 184 179 175 178 179 179 179
222 238 251 255 268 263 226 262 286 278 285 297 322 297 288 318 314 311 313 309 306 309 310 304 294 266 213 201 187 193 194 191 184 180 180 182 182 176 169 170 174 169 171 176
228 241 262 260 276 84 211 258 282 273 282 289 261 256 282 298 303 302 304 307 312 313 305 296 288 243 215 205 212 209 189 177 177 180 181 177 169 164 160 159 158 159 160 164
206 228 250 248 174 202 239 267 272 274 276 279 275 281 291 298 300 304 311 315 317 312 305 303 289 240 233 225 223 189 171 171 175 173 168 162 159 159 157 157 159 159 157 157
206 226 247 227 220 243 247 256 261 265 274 279 283 287 294 298 302 305 309 313 315 309 308 304 290 247 242 241 195 173 169 171 168 161 160 160 161 160 158 161 163 164 164 165
242 255 257 258 254 259 255 254 262 266 277 281 279 284 290 294 295 299 302 305 310 312 307 302 293 267 245 231 189 176 176 170 163 160 158 159 161 163 166 170 169 167 168 169
244 260 274 263 250 257 263 265 271 277 277 274 275 280 282 289 290 292 295 298 302 302 295 293 293 283 264 219 186 181 177 170 165 162 160 164 165 172 174 181 178 173 176 171
246 241 239 257 259 260 264 269 273 280 284 278 267 271 279 282 282 287 292 297 300 297 294 294 288 280 262 221 193 182 179 175 172 166 164 165 156 135 124 154 162 166 165 163
245 254 253 263 268 265 265 270 272 272 272 277 275 270 274 279 280 281 286 289 290 292 294 295 285 273 257 222 198 191 190 183 175 171 170 168 164 160 149 120 128 149 157 157
242 250 260 259 262 266 267 270 274 273 269 268 274 276 275 277 278 279 279 281 285 287 289 289 281 274 260 224 201 193 188 186 180 177 174 172 170 166 163 159 155 149 154 157
241 237 245 259 265 267 269 275 279 278 278 277 275 275 273 272 273 275 277 279 285 287 288 283 278 273 259 219 199 191 187 185 178 173 170 168 162 158 157 155 155 150 141 149
253 250 252 260 266 269 271 273 274 277 278 277 278 274 270 268 270 274 275 270 275 282 284 278 274 270 255 220 197 192 191 184 176 170 168 163 162 161 161 160 159 161 163 158
258 264 264 270 271 274 270 268 270 275 278 278 277 274 272 272 274 273 273 268 265 269 270 267 267 261 245 221 198 192 184 178 172 168 172 169 168 167 166 165 167 167 166 165
251 259 263 266 271 277 279 275 273 275 277 280 282 275 268 266 269 271 272 275 272 271 268 263 260 249 238 224 200 186 182 179 176 174 171 171 169 166 164 165 165 161 156 161
281 279 281 281 281 282 285 287 287 283 284 286 282 274 269 267 265 267 271 266 261 268 272 264 257 245 233 218 198 184 180 176 172 168 166 170 168 164 164 165 164 161 159 161
300 295 294 295 293 290 290 292 293 291 289 287 283 280 279 275 269 268 268 262 253 253 261 264 255 238 226 209 197 185 181 178 173 169 167 169 168 166 165 163 161 159 160 162
314 311 307 304 301 298 293 294 297 297 297 292 284 279 279 279 274 268 267 269 265 248 253 256 248 234 220 206 195 184 181 179 174 171 169 167 164 162 162 160 159 159 160 159
313 310 307 307 306 304 303 301 297 296 297 294 289 285 286 285 282 273 260 258 266 259 257 251 242 230 215 202 190 180 176 173 170 167 165 164 163 163 163 160 158 159 159 159
302 301 301 301 300 300 301 300 298 297 295 293 290 287 285 284 281 277 281 274 260 259 258 249 237 220 202 185 176 171 167 164 165 165 163 163 161 161 161 158 157 158 158 157
301 299 296 296 294 294 297 300 301 298 293 290 287 286 286 288 287 276 274 278 277 271 263 241 218 197 181 172 164 161 159 158 158 157 154 153 153 154 154 155 155 154 154 152
300 296 294 296 294 291 293 302 305 303 302 302 302 301 294 279 276 287 288 282 277 278 267 225 188 174 166 152 152 152 152 152 151 148 149 152 152 152 152 154 153 152 153 153
296 295 290 284 282 286 293 299 302 306 309 311 313 316 319 316 304 300 297 293 285 296 289 143 143 140 138 137 137 135 136 140 141 141 144 146 146 148 150 149 146 150 149 147
298 297 300 301 299 295 297 299 300 303 307 306 309 319 326 328 334 339 345 7 43 63 74 82 94 110 120 125 127 129 130 131 132 135 138 140 143 145 146 144 144 142 142 144
Height
1418 1414 1414 1411 1408 1407 1408 1405 1404 1392 1385 1375 1375 1372 1369 1367 1365 1362 1360 1358 1356 1354 1353 1353 1353 1355 1357 1360 1363 1367 1371 1376 1381 1387 1392 1398 1404 1409 1414 1419 1424 1429 1434 1438
1416 1410 1409 1406 1401 1399 1398 1396 1392 1387 1380 1373 1373 1371 1368 1366 1364 1361 1358 1356 1354 1352 1351 1350 1350 1351 1352 1355 1358 1361 1365 1369 1375 1380 1385 1391 1396 1402 1407 1412 1417 1422 1427 1431
1415 1409 1408 1404 1392 1390 1388 1385 1384 1381 1373 1371 1371 1369 1366 1364 1362 1360 1357 1355 1352 1350 1348 1348 1347 1348 1349 1351 1353 1356 1360 1364 1369 1374 1379 1384 1390 1395 1400 1405 1410 1415 1420 1424
1413 1412 1411 1391 1384 1383 1381 1378 1377 1375 1371 1370 1368 1365 1363 1361 1360 1358 1356 1353 1350 1347 1346 1345 1345 1345 1346 1347 1349 1352 1355 1360 1364 1368 1373 1379 1384 1389 1394 1399 1404 1409 1413 1418
1412 1409 1400 1388 1382 1381 1380 1375 1373 1372 1369 1367 1365 1362 1359 1358 1357 1356 1354 1351 1348 1346 1344 1343 1342 1342 1343 1343 1345 1348 1351 1355 1359 1363 1367 1372 1378 1383 1388 1393 1398 1403 1408 1412
1409 1406 1396 1384 1376 1374 1376 1375 1371 1369 1368 1365 1363 1363 1358 1356 1355 1352 1350 1348 1346 1343 1341 1340 1340 1340 1340 1340 1342 1344 1347 1350 1354 1358 1362 1367 1372 1377 1382 1387 1392 1397 1402 1407
1403 1400 1389 1379 1375 1374 1380 1375 1369 1366 1365 1363 1362 1361 1357 1354 1352 1350 1348 1345 1343 1341 1339 1338 1337 1337 1338 1338 1339 1341 1344 1347 1351 1354 1358 1363 1367 1372 1377 1382 1387 1392 1397 1402
1399 1397 1387 1373 1373 1374 1371 1367 1366 1364 1362 1360 1358 1355 1353 1350 1348 1346 1344 1342 1340 1339 1337 1336 1335 1334 1334 1335 1336 1338 1341 1344 1347 1351 1354 1358 1362 1367 1372 1377 1382 1386 1391 1396
1385 1379 1370 1368 1368 1366 1365 1364 1362 1361 1359 1357 1354 1352 1349 1347 1345 1343 1342 1340 1338 1336 1334 1333 1332 1332 1331 1332 1334 1335 1337 1340 1343 1347 1351 1354 1358 1362 1367 1372 1376 1380 1385 1390
1377 1370 1366 1364 1363 1362 1362 1360 1358 1357 1355 1353 1351 1348 1346 1344 1342 1341 1339 1337 1335 1332 1330 1329 1329 1329 1329 1330 1331 1332 1334 1337 1340 1343 1346 1350 1354 1358 1362 1366 1370 1374 1379 1384
1369 1364 1361 1358 1358 1358 1356 1355 1354 1352 1350 1349 1347 1345 1343 1341 1339 1337 1335 1334 1332 1329 1328 1326 1325 1325 1325 1326 1327 1329 1330 1333 1335 1339 1343 1346 1350 1354 1358 1362 1366 1370 1374 1379
1361 1357 1357 1354 1353 1352 1351 1350 1348 1347 1344 1343 1342 1339 1338 1336 1335 1333 1331 1329 1327 1325 1324 1322 1321 1321 1322 1322 1323 1325 1326 1328 1331 1334 1338 1342 1345 1350 1354 1359 1363 1368 1372 1376
1351 1349 1349 1348 1347 1346 1345 1343 1342 1341 1339 1337 1335 1334 1332 1331 1330 1328 1326 1325 1323 1321 1319 1318 1317 1317 1317 1318 1319 1320 1322 1324 1327 1330 1333 1337 1341 1345 1349 1354 1359 1364 1368 1372
1344 1344 1343 1341 1340 1339 1338 1337 1336 1334 1332 1331 1329 1328 1327 1325 1324 1323 1321 1320 1318 1316 1315 1313 1312 1312 1312 1313 1314 1316 1318 1320 1323 1325 1329 1333 1337 1341 1345 1349 1353 1358 1363 1368
1336 1337 1336 1334 1333 1332 1332 1331 1329 1327 1325 1324 1323 1322 1321 1319 1318 1317 1315 1314 1313 1311 1310 1309 1307 1307 1308 1308 1309 1311 1313 1316 1318 1321 1325 1328 1333 1337 1341 1345 1349 1353 1358 1363
1329 1329 1329 1328 1326 1325 1325 1324 1322 1320 1319 1318 1316 1315 1314 1313 1312 1311 1310 1309 1307 1305 1304 1303 1302 1302 1303 1304 1305 1306 1309 1311 1314 1317 1320 1324 1328 1332 1336 1341 1345 1349 1353 1358
1324 1322 1322 1321 1320 1319 1318 1317 1316 1314 1313 1311 1309 1308 1307 1307 1305 1304 1303 1303 1302 1300 1299 1298 1297 1297 1298 1299 1300 1302 1304 1306 1309 1312 1316 1319 1323 1327 1332 1336 1341 1345 1349 1354
1318 1317 1316 1316 1314 1313 1312 1310 1309 1308 1306 1305 1303 1302 1301 1300 1298 1297 1297 1296 1295 1294 1293 1293 1292 1292 1292 1294 1295 1297 1299 1301 1304 1307 1311 1315 1319 1323 1328 1332 1337 1341 1345 1350
1313 1312 1311 1310 1309 1308 1306 1305 1303 1302 1300 1299 1297 1295 1294 1293 1292 1291 1290 1289 1288 1287 1286 1287 1287 1287 1287 1289 1290 1292 1294 1297 1299 1303 1307 1311 1315 1319 1323 1327 1332 1337 1341 1345
1309 1308 1307 1305 1304 1303 1301 1299 1298 1296 1295 1293 1291 1289 1287 1286 1286 1285 1283 1282 1281 1281 1281 1281 1281 1281 1282 1284 1286 1287 1290 1292 1295 1298 1303 1307 1310 1314 1319 1323 1328 1332 1337 1342
1305 1304 1302 1301 1299 1298 1296 1295 1293 1291 1289 1288 1286 1283 1282 1280 1280 1279 1277 1275 1275 1277 1276 1276 1276 1276 1277 1279 1281 1283 1285 1288 1291 1294 1298 1302 1306 1310 1315 1319 1323 1328 1333 1338
1302 1300 1298 1297 1295 1293 1292 1290 1288 1286 1284 1282 1280 1278 1276 1275 1274 1273 1272 1271 1270 1271 1271 1271 1271 1272 1273 1274 1276 1278 1281 1284 1287 1290 1294 1298 1302 1306 1311 1315 1320 1325 1330 1335
1298 1296 1294 1293 1291 1289 1287 1285 1284 1282 1280 1278 1276 1274 1272 1270 1269 1268 1266 1266 1266 1266 1266 1266 1267 1267 1269 1270 1272 1274 1276 1279 1283 1287 1291 1295 1299 1303 1308 1312 1317 1322 1327 1332
1294 1292 1291 1289 1287 1285 1282 1280 1279 1277 1275 1273 1272 1270 1268 1266 1265 1264 1263 1262 1262 1262 1262 1262 1263 1264 1265 1267 1268 1271 1273 1277 1280 1284 1288 1292 1296 1301 1305 1310 1314 1319 1324 1329
1290 1288 1286 1284 1282 1280 1278 1276 1274 1272 1270 1269 1267 1266 1265 1263 1262 1260 1260 1259 1259 1259 1259 1259 1260 1261 1262 1264 1266 1268 1271 1274 1278 1282 1286 1290 1294 1298 1303 1307 1312 1317 1321 1326
1286 1284 1282 1280 1278 1276 1274 1272 1270 1268 1267 1265 1263 1262 1261 1260 1259 1257 1257 1256 1256 1256 1256 1256 1257 1258 1260 1262 1264 1267 1270 1273 1277 1280 1284 1288 1292 1296 1301 1305 1310 1315 1319 1323
1282 1280 1278 1276 1274 1273 1271 1269 1267 1266 1264 1262 1260 1259 1258 1257 1256 1255 1255 1254 1254 1254 1254 1255 1256 1257 1259 1261 1263 1266 1269 1272 1276 1279 1283 1287 1291 1295 1299 1303 1308 1312 1317 1321